Powrót do katalogu

FENGYUN 1C DEB

LostPO
NORAD 32426·DEBRIS·🇨🇳 China

Wystrzelony May 10, 1999 z Taiyuan Satellite Launch Center

Loading…

Następne Przeloty (najbliższe 24 godziny)

TLE

NieaktualneSource: Space-Track

Epoka: Oct 11, 2011, 11:21 UTC

1 32426U 99025DAN 11284.47345556  .00002401  00000-0  24138-2 0  9994
2 32426  98.2688  30.8916 0302044 225.3839 132.3573 13.60063636207829

Śledź FENGYUN 1C DEB w czasie rzeczywistym z AllMySat

Download on the App Store